iso_date,epoch_date,Year,Hour,Min,DOY,POS_DOY,Lat,Lon,BP,Ts,Ta,has_bp,has_ts,has_ta,BuoyID,Buoy_Type,Buoy_Owner,Logistics,Hemisphere
2014-03-02T22:00:28Z,1393797629,2014,22,0,61.917,61.917,62.46698,-114.41592,1011.99,-999.00,-999.0,yes,no,no,169312003533282,WB,BAS,APL_Sachs_Harbor,North
2014-03-02T22:59:31Z,1393801171,2014,23,0,61.958,61.958,62.46697,-114.4159,1009.45,-999.00,-999.0,yes,no,no,169312003533282,WB,BAS,APL_Sachs_Harbor,North
2014-03-03T00:00:00Z,1393804800,2014,0,0,62.0,62.0,62.467,-114.41595,1006.92,-999.00,-999.0,yes,no,no,169312003533282,WB,BAS,APL_Sachs_Harbor,North
2014-03-03T01:00:28Z,1393808429,2014,1,0,62.042,62.042,62.46698,-114.41588,1008.12,-999.00,-999.0,yes,no,no,169312003533282,WB,BAS,APL_Sachs_Harbor,North
2014-03-03T01:59:31Z,1393811971,2014,2,0,62.083,62.083,62.46697,-114.41588,1005.58,-999.00,-999.0,yes,no,no,169312003533282,WB,BAS,APL_Sachs_Harbor,North
2014-03-03T03:00:00Z,1393815600,2014,3,0,62.125,62.125,62.46698,-114.41592,1001.72,-999.00,-999.0,yes,no,no,169312003533282,WB,BAS,APL_Sachs_Harbor,North
2014-03-03T04:00:28Z,1393819229,2014,4,0,62.167,62.167,62.46695,-114.41595,1000.52,-999.00,-999.0,yes,no,no,169312003533282,WB,BAS,APL_Sachs_Harbor,North
2014-03-03T04:59:31Z,1393822771,2014,5,0,62.208,62.208,62.46697,-114.41593,1000.52,-999.00,-999.0,yes,no,no,169312003533282,WB,BAS,APL_Sachs_Harbor,North
2014-03-03T06:00:00Z,1393826400,2014,6,0,62.25,62.25,62.46695,-114.4159,1000.51,-999.00,-999.0,yes,no,no,169312003533282,WB,BAS,APL_Sachs_Harbor,North
2014-03-03T07:00:28Z,1393830029,2014,7,0,62.292,62.292,62.46695,-114.41592,999.18,-999.00,-999.0,yes,no,no,169312003533282,WB,BAS,APL_Sachs_Harbor,North
2014-03-03T07:59:31Z,1393833571,2014,8,0,62.333,62.333,62.467,-114.416,999.18,-999.00,-999.0,yes,no,no,169312003533282,WB,BAS,APL_Sachs_Harbor,North
2014-03-03T09:00:00Z,1393837200,2014,9,0,62.375,62.375,62.467,-114.416,999.18,-999.00,-999.0,yes,no,no,169312003533282,WB,BAS,APL_Sachs_Harbor,North
2014-03-03T10:00:28Z,1393840829,2014,10,0,62.417,62.417,62.467,-114.416,996.65,-999.00,-999.0,yes,no,no,169312003533282,WB,BAS,APL_Sachs_Harbor,North
2014-03-03T10:59:31Z,1393844371,2014,11,0,62.458,62.458,62.467,-114.416,1000.51,-999.00,-999.0,yes,no,no,169312003533282,WB,BAS,APL_Sachs_Harbor,North
2014-03-03T12:00:00Z,1393848000,2014,12,0,62.5,62.5,62.467,-114.416,1000.51,-999.00,-999.0,yes,no,no,169312003533282,WB,BAS,APL_Sachs_Harbor,North
2014-03-03T13:00:28Z,1393851629,2014,13,0,62.542,62.542,62.467,-114.416,997.98,-999.00,-999.0,yes,no,no,169312003533282,WB,BAS,APL_Sachs_Harbor,North
2014-03-03T13:59:31Z,1393855171,2014,14,0,62.583,62.583,62.467,-114.416,999.18,-999.00,-999.0,yes,no,no,169312003533282,WB,BAS,APL_Sachs_Harbor,North
2014-03-03T15:00:00Z,1393858800,2014,15,0,62.625,62.625,62.467,-114.416,997.98,-999.00,-999.0,yes,no,no,169312003533282,WB,BAS,APL_Sachs_Harbor,North
2014-03-20T01:00:28Z,1395277229,2014,1,0,79.042,79.042,75.42492,-137.09648,1033.72,-999.00,-999.0,yes,no,no,169312003533282,WB,BAS,APL_Sachs_Harbor,North
2014-03-20T01:59:31Z,1395280771,2014,2,0,79.083,79.083,75.42492,-137.09648,1036.26,-999.00,-999.0,yes,no,no,169312003533282,WB,BAS,APL_Sachs_Harbor,North
2014-03-20T03:00:00Z,1395284400,2014,3,0,79.125,79.125,75.42497,-137.0878,1033.71,-999.00,-999.0,yes,no,no,169312003533282,WB,BAS,APL_Sachs_Harbor,North
2014-03-20T04:00:28Z,1395288029,2014,4,0,79.167,79.167,75.42498,-137.08508,1033.71,-999.00,-999.0,yes,no,no,169312003533282,WB,BAS,APL_Sachs_Harbor,North
2014-03-20T04:59:31Z,1395291571,2014,5,0,79.208,79.208,75.42498,-137.08107,1034.91,-999.00,-999.0,yes,no,no,169312003533282,WB,BAS,APL_Sachs_Harbor,North
2014-03-20T06:00:00Z,1395295200,2014,6,0,79.25,79.25,75.42502,-137.07965,1033.71,-999.00,-999.0,yes,no,no,169312003533282,WB,BAS,APL_Sachs_Harbor,North
2014-03-20T07:00:28Z,1395298829,2014,7,0,79.292,79.292,75.4254,-137.07398,1034.91,-999.00,-999.0,yes,no,no,169312003533282,WB,BAS,APL_Sachs_Harbor,North
2014-03-20T07:59:31Z,1395302371,2014,8,0,79.333,79.333,75.42573,-137.0689,1033.71,-999.00,-999.0,yes,no,no,169312003533282,WB,BAS,APL_Sachs_Harbor,North
2014-03-20T09:00:00Z,1395306000,2014,9,0,79.375,79.375,75.42573,-137.0689,1033.71,-999.00,-999.0,yes,no,no,169312003533282,WB,BAS,APL_Sachs_Harbor,North
2014-03-20T10:00:28Z,1395309629,2014,10,0,79.417,79.417,75.42605,-137.04752,1034.91,-999.00,-999.0,yes,no,no,169312003533282,WB,BAS,APL_Sachs_Harbor,North
2014-03-20T12:00:00Z,1395316800,2014,12,0,79.5,79.5,75.42617,-137.02108,1033.71,-999.00,-999.0,yes,no,no,169312003533282,WB,BAS,APL_Sachs_Harbor,North
2014-03-20T13:00:28Z,1395320429,2014,13,0,79.542,79.542,75.42637,-137.00808,1033.71,-999.00,-999.0,yes,no,no,169312003533282,WB,BAS,APL_Sachs_Harbor,North
2014-03-20T13:59:31Z,1395323971,2014,14,0,79.583,79.583,75.42663,-136.99573,1031.18,-999.00,-999.0,yes,no,no,169312003533282,WB,BAS,APL_Sachs_Harbor,North
2014-03-20T15:00:00Z,1395327600,2014,15,0,79.625,79.625,75.4277,-136.98093,1033.71,-999.00,-999.0,yes,no,no,169312003533282,WB,BAS,APL_Sachs_Harbor,North
2014-03-20T16:00:28Z,1395331229,2014,16,0,79.667,79.667,75.42903,-136.96473,1032.38,-999.00,-999.0,yes,no,no,169312003533282,WB,BAS,APL_Sachs_Harbor,North
2014-03-20T16:59:31Z,1395334771,2014,17,0,79.708,79.708,75.43042,-136.94957,1029.85,-999.00,-999.0,yes,no,no,169312003533282,WB,BAS,APL_Sachs_Harbor,North
2014-03-20T18:00:00Z,1395338400,2014,18,0,79.75,79.75,75.43227,-136.93,1027.31,-999.00,-999.0,yes,no,no,169312003533282,WB,BAS,APL_Sachs_Harbor,North
2014-03-20T19:00:28Z,1395342029,2014,19,0,79.792,79.792,75.43392,-136.90497,1025.98,-999.00,-999.0,yes,no,no,169312003533282,WB,BAS,APL_Sachs_Harbor,North
2014-03-20T19:59:31Z,1395345571,2014,20,0,79.833,79.833,75.43557,-136.88015,1027.32,-999.00,-999.0,yes,no,no,169312003533282,WB,BAS,APL_Sachs_Harbor,North
2014-03-20T21:00:00Z,1395349200,2014,21,0,79.875,79.875,75.43607,-136.8532,1025.98,-999.00,-999.0,yes,no,no,169312003533282,WB,BAS,APL_Sachs_Harbor,North
2014-03-20T22:00:28Z,1395352829,2014,22,0,79.917,79.917,75.4363,-136.82803,1024.79,-999.00,-999.0,yes,no,no,169312003533282,WB,BAS,APL_Sachs_Harbor,North
2014-03-20T22:59:31Z,1395356371,2014,23,0,79.958,79.958,75.43547,-136.80072,1024.78,-999.00,-999.0,yes,no,no,169312003533282,WB,BAS,APL_Sachs_Harbor,North
2014-03-21T00:00:00Z,1395360000,2014,0,0,80.0,80.0,75.43412,-136.7778,1027.32,-999.00,-999.0,yes,no,no,169312003533282,WB,BAS,APL_Sachs_Harbor,North
2014-03-21T01:00:28Z,1395363629,2014,1,0,80.042,80.042,75.43193,-136.75875,1024.79,-999.00,-999.0,yes,no,no,169312003533282,WB,BAS,APL_Sachs_Harbor,North
2014-03-21T01:59:31Z,1395367171,2014,2,0,80.083,80.083,75.42922,-136.74272,1027.32,-999.00,-999.0,yes,no,no,169312003533282,WB,BAS,APL_Sachs_Harbor,North
2014-03-21T03:00:00Z,1395370800,2014,3,0,80.125,80.125,75.42675,-136.73073,1028.51,-999.00,-999.0,yes,no,no,169312003533282,WB,BAS,APL_Sachs_Harbor,North
2014-03-21T04:00:28Z,1395374429,2014,4,0,80.167,80.167,75.42485,-136.72283,1028.51,-999.00,-999.0,yes,no,no,169312003533282,WB,BAS,APL_Sachs_Harbor,North
2014-03-21T04:59:31Z,1395377971,2014,5,0,80.208,80.208,75.42363,-136.7174,1027.31,-999.00,-999.0,yes,no,no,169312003533282,WB,BAS,APL_Sachs_Harbor,North
2014-03-21T06:00:00Z,1395381600,2014,6,0,80.25,80.25,75.42225,-136.7088,1025.98,-999.00,-999.0,yes,no,no,169312003533282,WB,BAS,APL_Sachs_Harbor,North
2014-03-21T07:00:28Z,1395385229,2014,7,0,80.292,80.292,75.42125,-136.7015,1027.31,-999.00,-999.0,yes,no,no,169312003533282,WB,BAS,APL_Sachs_Harbor,North
2014-03-21T07:59:31Z,1395388771,2014,8,0,80.333,80.333,75.42023,-136.68943,1028.51,-999.00,-999.0,yes,no,no,169312003533282,WB,BAS,APL_Sachs_Harbor,North
2014-03-21T09:00:00Z,1395392400,2014,9,0,80.375,80.375,75.41983,-136.67813,1027.31,-999.00,-999.0,yes,no,no,169312003533282,WB,BAS,APL_Sachs_Harbor,North
2014-03-21T10:00:28Z,1395396029,2014,10,0,80.417,80.417,75.41975,-136.6637,1025.98,-999.00,-999.0,yes,no,no,169312003533282,WB,BAS,APL_Sachs_Harbor,North
2014-03-21T10:59:31Z,1395399571,2014,11,0,80.458,80.458,75.41943,-136.6467,1024.78,-999.00,-999.0,yes,no,no,169312003533282,WB,BAS,APL_Sachs_Harbor,North
2014-03-21T12:00:00Z,1395403200,2014,12,0,80.5,80.5,75.41977,-136.62942,1023.45,-999.00,-999.0,yes,no,no,169312003533282,WB,BAS,APL_Sachs_Harbor,North
2014-03-21T13:00:28Z,1395406829,2014,13,0,80.542,80.542,75.41978,-136.61373,1023.45,-999.00,-999.0,yes,no,no,169312003533282,WB,BAS,APL_Sachs_Harbor,North
2014-03-21T13:59:31Z,1395410371,2014,14,0,80.583,80.583,75.41957,-136.59828,1022.25,-999.00,-999.0,yes,no,no,169312003533282,WB,BAS,APL_Sachs_Harbor,North
2014-03-21T15:00:00Z,1395414000,2014,15,0,80.625,80.625,75.42035,-136.58283,1018.38,-999.00,-999.0,yes,no,no,169312003533282,WB,BAS,APL_Sachs_Harbor,North
2014-03-21T16:00:28Z,1395417629,2014,16,0,80.667,80.667,75.42113,-136.56448,1019.58,-999.00,-999.0,yes,no,no,169312003533282,WB,BAS,APL_Sachs_Harbor,North
2014-03-21T16:59:31Z,1395421171,2014,17,0,80.708,80.708,75.42257,-136.54287,1017.05,-999.00,-999.0,yes,no,no,169312003533282,WB,BAS,APL_Sachs_Harbor,North
2014-03-21T18:00:00Z,1395424800,2014,18,0,80.75,80.75,75.4233,-136.52097,1015.85,-999.00,-999.0,yes,no,no,169312003533282,WB,BAS,APL_Sachs_Harbor,North
2014-03-21T19:00:28Z,1395428429,2014,19,0,80.792,80.792,75.4231,-136.49925,1014.51,-999.00,-999.0,yes,no,no,169312003533282,WB,BAS,APL_Sachs_Harbor,North
2014-03-21T19:59:31Z,1395431971,2014,20,0,80.833,80.833,75.42243,-136.47737,1015.85,-999.00,-999.0,yes,no,no,169312003533282,WB,BAS,APL_Sachs_Harbor,North
2014-03-21T21:00:00Z,1395435600,2014,21,0,80.875,80.875,75.41992,-136.45642,1014.53,-999.00,-999.0,yes,no,no,169312003533282,WB,BAS,APL_Sachs_Harbor,North
2014-03-21T22:00:28Z,1395439229,2014,22,0,80.917,80.917,75.41527,-136.43652,1017.06,-999.00,-999.0,yes,no,no,169312003533282,WB,BAS,APL_Sachs_Harbor,North
2014-03-21T22:59:31Z,1395442771,2014,23,0,80.958,80.958,75.41162,-136.42662,1018.39,-999.00,-999.0,yes,no,no,169312003533282,WB,BAS,APL_Sachs_Harbor,North
2014-03-22T00:00:00Z,1395446400,2014,0,0,81.0,81.0,75.40547,-136.4167,1017.05,-999.00,-999.0,yes,no,no,169312003533282,WB,BAS,APL_Sachs_Harbor,North
2014-03-22T01:00:28Z,1395450029,2014,1,0,81.042,81.042,75.39885,-136.41268,1020.92,-999.00,-999.0,yes,no,no,169312003533282,WB,BAS,APL_Sachs_Harbor,North
2014-03-22T01:59:31Z,1395453571,2014,2,0,81.083,81.083,75.39123,-136.4187,1019.59,-999.00,-999.0,yes,no,no,169312003533282,WB,BAS,APL_Sachs_Harbor,North
2014-03-22T03:00:00Z,1395457200,2014,3,0,81.125,81.125,75.38507,-136.42982,1020.92,-999.00,-999.0,yes,no,no,169312003533282,WB,BAS,APL_Sachs_Harbor,North
2014-03-22T04:00:28Z,1395460829,2014,4,0,81.167,81.167,75.37972,-136.44423,1022.25,-999.00,-999.0,yes,no,no,169312003533282,WB,BAS,APL_Sachs_Harbor,North
2014-03-22T04:59:31Z,1395464371,2014,5,0,81.208,81.208,75.37552,-136.45682,1024.78,-999.00,-999.0,yes,no,no,169312003533282,WB,BAS,APL_Sachs_Harbor,North
2014-03-22T06:00:00Z,1395468000,2014,6,0,81.25,81.25,75.37242,-136.4666,1023.45,-999.00,-999.0,yes,no,no,169312003533282,WB,BAS,APL_Sachs_Harbor,North
2014-03-22T07:00:28Z,1395471629,2014,7,0,81.292,81.292,75.37112,-136.47028,1024.78,-999.00,-999.0,yes,no,no,169312003533282,WB,BAS,APL_Sachs_Harbor,North
2014-03-22T07:59:31Z,1395475171,2014,8,0,81.333,81.333,75.36923,-136.4739,1027.31,-999.00,-999.0,yes,no,no,169312003533282,WB,BAS,APL_Sachs_Harbor,North
2014-03-22T09:00:00Z,1395478800,2014,9,0,81.375,81.375,75.3657,-136.47452,1027.31,-999.00,-999.0,yes,no,no,169312003533282,WB,BAS,APL_Sachs_Harbor,North
2014-03-22T10:00:28Z,1395482429,2014,10,0,81.417,81.417,75.36413,-136.4732,1031.18,-999.00,-999.0,yes,no,no,169312003533282,WB,BAS,APL_Sachs_Harbor,North
2014-03-22T10:59:31Z,1395485971,2014,11,0,81.458,81.458,75.3605,-136.47077,1028.51,-999.00,-999.0,yes,no,no,169312003533282,WB,BAS,APL_Sachs_Harbor,North
2014-03-22T12:00:00Z,1395489600,2014,12,0,81.5,81.5,75.35737,-136.46993,1028.51,-999.00,-999.0,yes,no,no,169312003533282,WB,BAS,APL_Sachs_Harbor,North
2014-03-22T13:00:28Z,1395493229,2014,13,0,81.542,81.542,75.35387,-136.46912,1028.51,-999.00,-999.0,yes,no,no,169312003533282,WB,BAS,APL_Sachs_Harbor,North
2014-03-22T13:59:31Z,1395496771,2014,14,0,81.583,81.583,75.3508,-136.46988,1028.51,-999.00,-999.0,yes,no,no,169312003533282,WB,BAS,APL_Sachs_Harbor,North
2014-03-22T15:00:00Z,1395500400,2014,15,0,81.625,81.625,75.3484,-136.47153,1029.84,-999.00,-999.0,yes,no,no,169312003533282,WB,BAS,APL_Sachs_Harbor,North
2014-03-22T16:00:28Z,1395504029,2014,16,0,81.667,81.667,75.34607,-136.47492,1029.85,-999.00,-999.0,yes,no,no,169312003533282,WB,BAS,APL_Sachs_Harbor,North
2014-03-22T16:59:31Z,1395507571,2014,17,0,81.708,81.708,75.34543,-136.4758,1029.85,-999.00,-999.0,yes,no,no,169312003533282,WB,BAS,APL_Sachs_Harbor,North
2014-03-22T18:00:00Z,1395511200,2014,18,0,81.75,81.75,75.34362,-136.47858,1032.39,-999.00,-999.0,yes,no,no,169312003533282,WB,BAS,APL_Sachs_Harbor,North
2014-03-22T19:00:28Z,1395514829,2014,19,0,81.792,81.792,75.3434,-136.47872,1029.86,-999.00,-999.0,yes,no,no,169312003533282,WB,BAS,APL_Sachs_Harbor,North
2014-03-22T19:59:31Z,1395518371,2014,20,0,81.833,81.833,75.3417,-136.47752,1029.86,-999.00,-999.0,yes,no,no,169312003533282,WB,BAS,APL_Sachs_Harbor,North
2014-03-22T21:00:00Z,1395522000,2014,21,0,81.875,81.875,75.34128,-136.47698,1033.72,-999.00,-999.0,yes,no,no,169312003533282,WB,BAS,APL_Sachs_Harbor,North
2014-03-22T22:00:28Z,1395525629,2014,22,0,81.917,81.917,75.3388,-136.47158,1034.92,-999.00,-999.0,yes,no,no,169312003533282,WB,BAS,APL_Sachs_Harbor,North
2014-03-22T22:59:31Z,1395529171,2014,23,0,81.958,81.958,75.33675,-136.46697,1034.92,-999.00,-999.0,yes,no,no,169312003533282,WB,BAS,APL_Sachs_Harbor,North
2014-03-23T00:00:00Z,1395532800,2014,0,0,82.0,82.0,75.33558,-136.46473,1038.79,-999.00,-999.0,yes,no,no,169312003533282,WB,BAS,APL_Sachs_Harbor,North
2014-03-23T01:00:28Z,1395536429,2014,1,0,82.042,82.042,75.33283,-136.45902,1040.12,-999.00,-999.0,yes,no,no,169312003533282,WB,BAS,APL_Sachs_Harbor,North
2014-03-23T01:59:31Z,1395539971,2014,2,0,82.083,82.083,75.33158,-136.45673,1038.79,-999.00,-999.0,yes,no,no,169312003533282,WB,BAS,APL_Sachs_Harbor,North
2014-03-23T03:00:00Z,1395543600,2014,3,0,82.125,82.125,75.32988,-136.45365,1038.78,-999.00,-999.0,yes,no,no,169312003533282,WB,BAS,APL_Sachs_Harbor,North
2014-03-23T04:00:28Z,1395547229,2014,4,0,82.167,82.167,75.32908,-136.45237,1036.25,-999.00,-999.0,yes,no,no,169312003533282,WB,BAS,APL_Sachs_Harbor,North
2014-03-23T04:59:31Z,1395550771,2014,5,0,82.208,82.208,75.32908,-136.45237,1037.45,-999.00,-999.0,yes,no,no,169312003533282,WB,BAS,APL_Sachs_Harbor,North
2014-03-23T06:00:00Z,1395554400,2014,6,0,82.25,82.25,75.32908,-136.45237,1037.45,-999.00,-999.0,yes,no,no,169312003533282,WB,BAS,APL_Sachs_Harbor,North
2014-03-23T07:00:28Z,1395558029,2014,7,0,82.292,82.292,75.32908,-136.45237,1037.45,-999.00,-999.0,yes,no,no,169312003533282,WB,BAS,APL_Sachs_Harbor,North
2014-03-23T07:59:31Z,1395561571,2014,8,0,82.333,82.333,75.32717,-136.43892,1037.45,-999.00,-999.0,yes,no,no,169312003533282,WB,BAS,APL_Sachs_Harbor,North
2014-03-23T09:00:00Z,1395565200,2014,9,0,82.375,82.375,75.32717,-136.43892,1037.45,-999.00,-999.0,yes,no,no,169312003533282,WB,BAS,APL_Sachs_Harbor,North
2014-03-23T10:00:28Z,1395568829,2014,10,0,82.417,82.417,75.32723,-136.42638,1034.91,-999.00,-999.0,yes,no,no,169312003533282,WB,BAS,APL_Sachs_Harbor,North
2014-03-23T10:59:31Z,1395572371,2014,11,0,82.458,82.458,75.32747,-136.41825,1041.31,-999.00,-999.0,yes,no,no,169312003533282,WB,BAS,APL_Sachs_Harbor,North
2014-03-23T12:00:00Z,1395576000,2014,12,0,82.5,82.5,75.32775,-136.40715,1034.91,-999.00,-999.0,yes,no,no,169312003533282,WB,BAS,APL_Sachs_Harbor,North
2014-03-23T13:00:28Z,1395579629,2014,13,0,82.542,82.542,75.32805,-136.39887,1034.91,-999.00,-999.0,yes,no,no,169312003533282,WB,BAS,APL_Sachs_Harbor,North
2014-03-23T13:59:31Z,1395583171,2014,14,0,82.583,82.583,75.32845,-136.39092,1034.91,-999.00,-999.0,yes,no,no,169312003533282,WB,BAS,APL_Sachs_Harbor,North
2014-03-23T15:00:00Z,1395586800,2014,15,0,82.625,82.625,75.32893,-136.3832,1032.38,-999.00,-999.0,yes,no,no,169312003533282,WB,BAS,APL_Sachs_Harbor,North
2014-03-23T16:00:28Z,1395590429,2014,16,0,82.667,82.667,75.32973,-136.37495,1031.18,-999.00,-999.0,yes,no,no,169312003533282,WB,BAS,APL_Sachs_Harbor,North
2014-03-23T16:59:31Z,1395593971,2014,17,0,82.708,82.708,75.33068,-136.36702,1029.85,-999.00,-999.0,yes,no,no,169312003533282,WB,BAS,APL_Sachs_Harbor,North
2014-03-23T18:00:00Z,1395597600,2014,18,0,82.75,82.75,75.33217,-136.35588,1027.31,-999.00,-999.0,yes,no,no,169312003533282,WB,BAS,APL_Sachs_Harbor,North
2014-03-23T19:00:28Z,1395601229,2014,19,0,82.792,82.792,75.3336,-136.34518,1025.98,-999.00,-999.0,yes,no,no,169312003533282,WB,BAS,APL_Sachs_Harbor,North
2014-03-23T19:59:31Z,1395604771,2014,20,0,82.833,82.833,75.33498,-136.33342,1027.33,-999.00,-999.0,yes,no,no,169312003533282,WB,BAS,APL_Sachs_Harbor,North
2014-03-23T21:00:00Z,1395608400,2014,21,0,82.875,82.875,75.33642,-136.32053,1027.32,-999.00,-999.0,yes,no,no,169312003533282,WB,BAS,APL_Sachs_Harbor,North
2014-03-23T22:00:28Z,1395612029,2014,22,0,82.917,82.917,75.33753,-136.30633,1027.32,-999.00,-999.0,yes,no,no,169312003533282,WB,BAS,APL_Sachs_Harbor,North
2014-03-23T22:59:31Z,1395615571,2014,23,0,82.958,82.958,75.33833,-136.29435,1028.52,-999.00,-999.0,yes,no,no,169312003533282,WB,BAS,APL_Sachs_Harbor,North
2014-03-24T00:00:00Z,1395619200,2014,0,0,83.0,83.0,75.33915,-136.282,1027.32,-999.00,-999.0,yes,no,no,169312003533282,WB,BAS,APL_Sachs_Harbor,North
2014-03-24T01:00:28Z,1395622829,2014,1,0,83.042,83.042,75.33973,-136.26765,1023.45,-999.00,-999.0,yes,no,no,169312003533282,WB,BAS,APL_Sachs_Harbor,North
2014-03-24T01:59:31Z,1395626371,2014,2,0,83.083,83.083,75.33972,-136.25982,1024.78,-999.00,-999.0,yes,no,no,169312003533282,WB,BAS,APL_Sachs_Harbor,North
2014-03-24T03:00:00Z,1395630000,2014,3,0,83.125,83.125,75.3397,-136.24862,1023.45,-999.00,-999.0,yes,no,no,169312003533282,WB,BAS,APL_Sachs_Harbor,North
2014-03-24T04:00:28Z,1395633629,2014,4,0,83.167,83.167,75.33957,-136.247,1020.91,-999.00,-999.0,yes,no,no,169312003533282,WB,BAS,APL_Sachs_Harbor,North
2014-03-24T04:59:31Z,1395637171,2014,5,0,83.208,83.208,75.33957,-136.247,1022.25,-999.00,-999.0,yes,no,no,169312003533282,WB,BAS,APL_Sachs_Harbor,North
2014-03-24T06:00:00Z,1395640800,2014,6,0,83.25,83.25,75.33737,-136.23755,1020.91,-999.00,-999.0,yes,no,no,169312003533282,WB,BAS,APL_Sachs_Harbor,North
2014-03-24T07:00:28Z,1395644429,2014,7,0,83.292,83.292,75.33542,-136.23572,1020.91,-999.00,-999.0,yes,no,no,169312003533282,WB,BAS,APL_Sachs_Harbor,North
2014-03-24T07:59:31Z,1395647971,2014,8,0,83.333,83.333,75.33453,-136.23552,1022.25,-999.00,-999.0,yes,no,no,169312003533282,WB,BAS,APL_Sachs_Harbor,North
2014-03-24T09:00:00Z,1395651600,2014,9,0,83.375,83.375,75.33152,-136.2371,1020.91,-999.00,-999.0,yes,no,no,169312003533282,WB,BAS,APL_Sachs_Harbor,North
2014-03-24T10:00:28Z,1395655229,2014,10,0,83.417,83.417,75.3307,-136.23773,1023.45,-999.00,-999.0,yes,no,no,169312003533282,WB,BAS,APL_Sachs_Harbor,North
2014-03-24T10:59:31Z,1395658771,2014,11,0,83.458,83.458,75.32683,-136.24092,1023.45,-999.00,-999.0,yes,no,no,169312003533282,WB,BAS,APL_Sachs_Harbor,North
2014-03-24T12:00:00Z,1395662400,2014,12,0,83.5,83.5,75.32382,-136.24352,1022.25,-999.00,-999.0,yes,no,no,169312003533282,WB,BAS,APL_Sachs_Harbor,North
2014-03-24T13:00:28Z,1395666029,2014,13,0,83.542,83.542,75.32098,-136.24573,1025.98,-999.00,-999.0,yes,no,no,169312003533282,WB,BAS,APL_Sachs_Harbor,North
2014-03-24T13:59:31Z,1395669571,2014,14,0,83.583,83.583,75.31822,-136.24715,1027.31,-999.00,-999.0,yes,no,no,169312003533282,WB,BAS,APL_Sachs_Harbor,North
2014-03-24T15:00:00Z,1395673200,2014,15,0,83.625,83.625,75.31553,-136.24953,1028.51,-999.00,-999.0,yes,no,no,169312003533282,WB,BAS,APL_Sachs_Harbor,North
2014-03-24T16:00:28Z,1395676829,2014,16,0,83.667,83.667,75.31275,-136.25043,1028.51,-999.00,-999.0,yes,no,no,169312003533282,WB,BAS,APL_Sachs_Harbor,North
2014-03-24T16:59:31Z,1395680371,2014,17,0,83.708,83.708,75.31058,-136.25152,1029.85,-999.00,-999.0,yes,no,no,169312003533282,WB,BAS,APL_Sachs_Harbor,North
2014-03-24T18:00:00Z,1395684000,2014,18,0,83.75,83.75,75.30765,-136.25353,1028.53,-999.00,-999.0,yes,no,no,169312003533282,WB,BAS,APL_Sachs_Harbor,North
2014-03-24T19:00:28Z,1395687629,2014,19,0,83.792,83.792,75.30565,-136.25363,1027.32,-999.00,-999.0,yes,no,no,169312003533282,WB,BAS,APL_Sachs_Harbor,North
2014-03-24T19:59:31Z,1395691171,2014,20,0,83.833,83.833,75.30528,-136.25363,1031.19,-999.00,-999.0,yes,no,no,169312003533282,WB,BAS,APL_Sachs_Harbor,North
2014-03-24T21:00:00Z,1395694800,2014,21,0,83.875,83.875,75.30265,-136.25267,1032.39,-999.00,-999.0,yes,no,no,169312003533282,WB,BAS,APL_Sachs_Harbor,North
2014-03-24T22:00:28Z,1395698429,2014,22,0,83.917,83.917,75.3011,-136.24993,1033.72,-999.00,-999.0,yes,no,no,169312003533282,WB,BAS,APL_Sachs_Harbor,North
2014-03-24T22:59:31Z,1395701971,2014,23,0,83.958,83.958,75.29843,-136.24365,1034.92,-999.00,-999.0,yes,no,no,169312003533282,WB,BAS,APL_Sachs_Harbor,North
2014-03-25T00:00:00Z,1395705600,2014,0,0,84.0,84.0,75.29723,-136.23953,1028.52,-999.00,-999.0,yes,no,no,169312003533282,WB,BAS,APL_Sachs_Harbor,North
2014-03-25T01:00:28Z,1395709229,2014,1,0,84.042,84.042,75.29515,-136.23062,1038.79,-999.00,-999.0,yes,no,no,169312003533282,WB,BAS,APL_Sachs_Harbor,North
2014-03-25T01:59:31Z,1395712771,2014,2,0,84.083,84.083,75.29355,-136.22438,1033.72,-999.00,-999.0,yes,no,no,169312003533282,WB,BAS,APL_Sachs_Harbor,North
2014-03-25T03:00:00Z,1395716400,2014,3,0,84.125,84.125,75.2914,-136.21455,1033.72,-999.00,-999.0,yes,no,no,169312003533282,WB,BAS,APL_Sachs_Harbor,North
2014-03-25T04:00:28Z,1395720029,2014,4,0,84.167,84.167,75.28998,-136.20918,1033.71,-999.00,-999.0,yes,no,no,169312003533282,WB,BAS,APL_Sachs_Harbor,North
2014-03-25T04:59:31Z,1395723571,2014,5,0,84.208,84.208,75.28853,-136.20393,1033.71,-999.00,-999.0,yes,no,no,169312003533282,WB,BAS,APL_Sachs_Harbor,North
2014-03-25T06:00:00Z,1395727200,2014,6,0,84.25,84.25,75.28765,-136.2016,1034.91,-999.00,-999.0,yes,no,no,169312003533282,WB,BAS,APL_Sachs_Harbor,North
2014-03-25T07:00:28Z,1395730829,2014,7,0,84.292,84.292,75.28672,-136.19917,1033.71,-999.00,-999.0,yes,no,no,169312003533282,WB,BAS,APL_Sachs_Harbor,North
2014-03-25T07:59:31Z,1395734371,2014,8,0,84.333,84.333,75.28672,-136.19917,1032.38,-999.00,-999.0,yes,no,no,169312003533282,WB,BAS,APL_Sachs_Harbor,North
2014-03-25T09:00:00Z,1395738000,2014,9,0,84.375,84.375,75.28672,-136.19917,1033.71,-999.00,-999.0,yes,no,no,169312003533282,WB,BAS,APL_Sachs_Harbor,North
2014-03-25T10:00:28Z,1395741629,2014,10,0,84.417,84.417,75.28672,-136.19917,1032.38,-999.00,-999.0,yes,no,no,169312003533282,WB,BAS,APL_Sachs_Harbor,North
2014-03-25T10:59:31Z,1395745171,2014,11,0,84.458,84.458,75.28647,-136.19335,1032.38,-999.00,-999.0,yes,no,no,169312003533282,WB,BAS,APL_Sachs_Harbor,North
2014-03-25T12:00:00Z,1395748800,2014,12,0,84.5,84.5,75.28655,-136.19253,1031.18,-999.00,-999.0,yes,no,no,169312003533282,WB,BAS,APL_Sachs_Harbor,North
2014-03-25T13:00:28Z,1395752429,2014,13,0,84.542,84.542,75.28655,-136.19253,1029.85,-999.00,-999.0,yes,no,no,169312003533282,WB,BAS,APL_Sachs_Harbor,North
2014-03-25T13:59:31Z,1395755971,2014,14,0,84.583,84.583,75.28655,-136.19253,1031.18,-999.00,-999.0,yes,no,no,169312003533282,WB,BAS,APL_Sachs_Harbor,North
2014-03-25T15:00:00Z,1395759600,2014,15,0,84.625,84.625,75.28717,-136.19028,1029.85,-999.00,-999.0,yes,no,no,169312003533282,WB,BAS,APL_Sachs_Harbor,North
2014-03-25T16:00:28Z,1395763229,2014,16,0,84.667,84.667,75.28738,-136.18923,1027.31,-999.00,-999.0,yes,no,no,169312003533282,WB,BAS,APL_Sachs_Harbor,North
2014-03-25T16:59:31Z,1395766771,2014,17,0,84.708,84.708,75.28743,-136.18895,1029.85,-999.00,-999.0,yes,no,no,169312003533282,WB,BAS,APL_Sachs_Harbor,North
2014-03-25T18:00:00Z,1395770400,2014,18,0,84.75,84.75,75.28807,-136.18663,1024.79,-999.00,-999.0,yes,no,no,169312003533282,WB,BAS,APL_Sachs_Harbor,North